Englewood, Florida, United States (34223)
Lat: 26.96N, Lon: 82.35W
Wx Zone: FLZ060
Local Info
Past Weather Observations for Sunday, November 23, 2014

NOTE: This archive is for the closest National Weather Service station to Englewood. Information may differ from the station used for current weather conditions.

Click here for Long-term Archive

Time Weather Temperature Dewpoint Humidity Pressure Winds Precip Visibility
23:53
Mostly Cloudy
73°F / 23°C 72°F / 22°C 94% 29.98 in
(1015 mb)
SE 6.9 mph
(SE 11 kph)
- 10SM
23:15
Mostly Cloudy
73°F / 23°C 72°F / 22°C 94% 29.98 in
(1015 mb)
SE 3.5 mph
(SE 6 kph)
- 10SM
22:53
Partly Cloudy
75°F / 24°C 72°F / 22°C 89% 29.98 in
(1015 mb)
SE 4.6 mph
(SE 7 kph)
- 10SM
21:53
Clear
75°F / 24°C 72°F / 22°C 89% 29.98 in
(1015 mb)
S 3.5 mph
(S 6 kph)
- 10SM
20:53
Clear
75°F / 24°C 72°F / 22°C 89% 29.95 in
(1014 mb)
S 5.8 mph
(S 9 kph)
- 10SM
19:53
Clear
77°F / 25°C 72°F / 22°C 83% 29.95 in
(1014 mb)
S 8.1 mph
(S 13 kph)
- 10SM
18:53
Clear
79°F / 26°C 72°F / 22°C 79% 29.95 in
(1014 mb)
S 8.1 mph
(S 13 kph)
- 10SM
17:53
Overcast
81°F / 27°C 72°F / 22°C 74% 29.92 in
(1013 mb)
SSE 9.2 mph
(SSE 15 kph)
- 10SM
16:53
Clear
82°F / 28°C 72°F / 22°C 70% 29.92 in
(1013 mb)
S 15 mph
(S 24 kph)
- 10SM
15:53
Partly Cloudy
84°F / 29°C 72°F / 22°C 66% 29.92 in
(1013 mb)
SSE 19.6 mph
(SSE 32 kph)
- 10SM
14:53
Partly Cloudy
86°F / 30°C 70°F / 21°C 59% 29.92 in
(1013 mb)
S 21.9 mph
(S 35 kph)
- 10SM
13:53
Mostly Cloudy
88°F / 31°C 72°F / 22°C 59% 29.92 in
(1013 mb)
S 23 mph
(S 37 kph)
- 10SM
12:53
Mostly Cloudy
84°F / 29°C 72°F / 22°C 66% 29.95 in
(1014 mb)
S 19.6 mph
(S 32 kph)
- 10SM
12:05
Mostly Cloudy
86°F / 30°C 72°F / 22°C 62% 30.01 in
(1016 mb)
S 16.1 mph
(S 26 kph)
- 10SM
11:53
Mostly Cloudy
84°F / 29°C 72°F / 22°C 66% 30.01 in
(1016 mb)
S 17.3 mph
(S 28 kph)
- 10SM
11:36
Mostly Cloudy
84°F / 29°C 73°F / 23°C 70% 30.01 in
(1016 mb)
S 10.4 mph
(S 17 kph)
- 10SM
11:21
Mostly Cloudy
84°F / 29°C 72°F / 22°C 66% 30.04 in
(1017 mb)
S 13.8 mph
(S 22 kph)
- 10SM
10:53
Mostly Cloudy
84°F / 29°C 72°F / 22°C 66% 30.04 in
(1017 mb)
S 15 mph
(S 24 kph)
- 10SM
09:53
Mostly Cloudy
81°F / 27°C 72°F / 22°C 74% 30.04 in
(1017 mb)
SSE 16.1 mph
(SSE 26 kph)
- 10SM
09:16
Mostly Cloudy
79°F / 26°C 72°F / 22°C 79% 30.04 in
(1017 mb)
SSE 11.5 mph
(SSE 19 kph)
- 10SM
09:08
Mostly Cloudy
79°F / 26°C 72°F / 22°C 79% 30.04 in
(1017 mb)
SSE 8.1 mph
(SSE 13 kph)
- 10SM
09:00
Partly Cloudy
79°F / 26°C 72°F / 22°C 79% 30.04 in
(1017 mb)
SSE 13.8 mph
(SSE 22 kph)
- 10SM
08:53
Mostly Cloudy
79°F / 26°C 72°F / 22°C 79% 30.04 in
(1017 mb)
SSE 11.5 mph
(SSE 19 kph)
- 10SM
08:34
Mostly Cloudy
77°F / 25°C 72°F / 22°C 83% 30.04 in
(1017 mb)
SSE 13.8 mph
(SSE 22 kph)
- 10SM
08:25
Mostly Cloudy
75°F / 24°C 72°F / 22°C 89% 30.04 in
(1017 mb)
SSE 10.4 mph
(SSE 17 kph)
- 10SM
07:53
Mostly Cloudy
73°F / 23°C 72°F / 22°C 94% 30.01 in
(1016 mb)
SE 9.2 mph
(SE 15 kph)
- 10SM
07:41
Overcast
73°F / 23°C 72°F / 22°C 94% 30.01 in
(1016 mb)
SSE 9.2 mph
(SSE 15 kph)
- 9SM
06:53
Overcast
73°F / 23°C 72°F / 22°C 94% 30.01 in
(1016 mb)
SE 9.2 mph
(SE 15 kph)
- 9SM
05:53
Overcast
73°F / 23°C 72°F / 22°C 94% 30.01 in
(1016 mb)
SE 6.9 mph
(SE 11 kph)
- 10SM
05:51
Overcast
73°F / 23°C 72°F / 22°C 94% 30.01 in
(1016 mb)
SE 6.9 mph
(SE 11 kph)
- 10SM
05:03
Overcast
73°F / 23°C 72°F / 22°C 94% 30.01 in
(1016 mb)
SE 8.1 mph
(SE 13 kph)
- 10SM
04:53
Overcast
73°F / 23°C 72°F / 22°C 94% 30.01 in
(1016 mb)
SE 5.8 mph
(SE 9 kph)
- 10SM
04:36
Overcast
73°F / 23°C 72°F / 22°C 94% 30.01 in
(1016 mb)
SE 8.1 mph
(SE 13 kph)
- 10SM
04:10
Overcast
73°F / 23°C 72°F / 22°C 94% 30.01 in
(1016 mb)
SE 8.1 mph
(SE 13 kph)
- 10SM
03:53
Overcast
73°F / 23°C 72°F / 22°C 94% 30.01 in
(1016 mb)
SE 9.2 mph
(SE 15 kph)
- 9SM
03:38
Overcast
73°F / 23°C 72°F / 22°C 94% 30.04 in
(1017 mb)
SE 8.1 mph
(SE 13 kph)
- 9SM
02:53
Overcast
73°F / 23°C 72°F / 22°C 94% 30.04 in
(1017 mb)
SE 9.2 mph
(SE 15 kph)
- 9SM
02:23
Overcast
73°F / 23°C 70°F / 21°C 89% 30.04 in
(1017 mb)
ESE 6.9 mph
(ESE 11 kph)
- 9SM
01:53
Overcast
73°F / 23°C 70°F / 21°C 89% 30.06 in
(1018 mb)
E 9.2 mph
(E 15 kph)
- 9SM
00:53
Overcast
73°F / 23°C 70°F / 21°C 89% 30.06 in
(1018 mb)
ESE 8.1 mph
(ESE 13 kph)
- 10SM
Time Weather Temperature Dewpoint Humidity Pressure Winds Precip Visibility


Weather for websites

WeatherForYou.com, LLC is not responsible for any damages or problems caused by this service. Current weather conditions are obtained from the closest station including government and personal stations which may have varying degrees of accuracy. Weather forecasts are derived from the NOAA NDFD. Like all things, this site belongs to Jesus Christ... He just trusts me to maintain it. If you have any questions or comments email webmaster@weatherforyou.com

Copyright © 2014, WeatherForYou.com LLC. All rights reserved.